Truckee-Tahoe, CA

12:54 AM PDT on March 24, 2017 (GMT -0700)
Truckee-Tahoe

Weather History for KTRK - November, 2012

Change the Weather History Date:

Friday, November 9, 2012

  Actual Average Record
Temperature  
Mean Temperature 19 °F -  
Max Temperature 28 °F 50 °F 69 °F (1978)
Min Temperature 10 °F 22 °F 10 °F (2012)
Degree Days  
Heating Degree Days 46    
Moisture  
Dew Point 15 °F    
Average Humidity 83    
Maximum Humidity 100    
Minimum Humidity 64    
Precipitation  
Precipitation 0.01 in - - ()
Snow  
Snow 0.00 in - - ()
Snow Depth 8.00 in    
Sea Level Pressure  
Sea Level Pressure 29.79 in    
Wind  
Wind Speed 6 mph (SSW)    
Max Wind Speed 10 mph    
Max Gust Speed 17 mph    
Visibility 10 miles    
Events Snow    
Averages and records for this station are not official NWS values.
T = Trace of Precipitation, MM = Missing Value Source: NWS Daily Summary

Daily Weather History Graph

Daily Weather History Graph

Search for Another Location

Airport or City:

Trip Planner

Search our weather history database for the weather conditions in past years. The results will help you decide how hot, cold, wet, or windy it might be!

Date:

Astronomy

Nov. 09, 2012 Rise Set
Actual Time 6:38 AM PST 4:50 PM PST
Civil Twilight 6:09 AM PST 5:18 PM PST
Nautical Twilight 5:37 AM PST 5:50 PM PST
Astronomical Twilight 5:06 AM PST 6:22 PM PST
Moon 1:44 AM PST (11/9) 2:04 PM PST (11/9)
Length of Visible Light 11h 08m
Length of Day
10h 12m
Waning Crescent, 22% of the Moon is Illuminated
Nov 9
Waning Crescent
Nov 13
New
Nov 20
First Quarter
Nov 28
Full
Dec 6
Last Quarter

Hourly Weather History & Observations

Time (PST) Temp. Windchill Dew Point Humidity Pressure Visibility Wind Dir Wind Speed Gust Speed Precip Events Conditions
12:15 AM 23.0 °F 13.9 °F 15.8 °F 74% 29.76 in 10.0 mi SW 8.1 mph - 0.01 in   Clear
12:35 AM 19.4 °F 10.4 °F 15.8 °F 86% 29.77 in 10.0 mi WSW 6.9 mph - 0.01 in   Clear
12:55 AM 19.4 °F 9.5 °F 14.0 °F 80% 29.77 in 10.0 mi WSW 8.1 mph - 0.01 in   Clear
1:15 AM 19.4 °F 9.5 °F 15.8 °F 86% 29.77 in 10.0 mi SW 8.1 mph - N/A   Scattered Clouds
1:35 AM 21.2 °F 10.9 °F 15.8 °F 80% 29.77 in 10.0 mi SW 9.2 mph - N/A Snow Light Snow
1:55 AM 19.4 °F 9.5 °F 17.6 °F 93% 29.77 in 7.0 mi SW 8.1 mph - N/A Snow Light Snow
2:15 AM 23.0 °F 13.9 °F 15.8 °F 74% 29.76 in 9.0 mi WSW 8.1 mph - N/A   Scattered Clouds
2:35 AM 21.2 °F 11.7 °F 15.8 °F 80% 29.76 in 10.0 mi SW 8.1 mph - N/A   Clear
2:55 AM 21.2 °F - 15.8 °F 80% 29.77 in 10.0 mi Calm Calm - N/A   Clear
3:15 AM 19.4 °F 12.8 °F 15.8 °F 86% 29.77 in 10.0 mi East 4.6 mph - N/A   Clear
3:35 AM 15.8 °F 7.2 °F 10.4 °F 79% 29.76 in 10.0 mi South 5.8 mph - N/A   Clear
3:55 AM 17.6 °F 9.3 °F 12.2 °F 79% 29.76 in 10.0 mi SSW 5.8 mph - N/A   Clear
4:15 AM 14.0 °F 3.9 °F 10.4 °F 86% 29.76 in 10.0 mi WSW 6.9 mph - N/A   Clear
4:35 AM 12.2 °F 6.1 °F 8.6 °F 85% 29.76 in 10.0 mi ENE 3.5 mph - N/A   Clear
4:55 AM 14.0 °F 6.5 °F 14.0 °F 100% 29.77 in 10.0 mi NNE 4.6 mph - N/A   Clear
5:15 AM 15.8 °F 10.2 °F 12.2 °F 86% 29.77 in 10.0 mi North 3.5 mph - N/A   Clear
5:35 AM 10.4 °F - 8.6 °F 92% 29.77 in 10.0 mi Calm Calm - N/A   Clear
6:55 AM 10.4 °F 2.2 °F 8.6 °F 92% 29.77 in 10.0 mi East 4.6 mph - N/A   Mostly Cloudy
8:55 AM 19.4 °F - 15.8 °F 86% 29.79 in 10.0 mi Calm Calm - N/A   Mostly Cloudy
10:55 AM 26.6 °F 21.2 °F 17.6 °F 69% 29.79 in 5.0 mi South 4.6 mph - N/A Snow Light Snow
11:55 AM 24.8 °F 17.9 °F 21.2 °F 86% 29.77 in 10.0 mi SE 5.8 mph - N/A   Mostly Cloudy
12:55 PM 26.6 °F 22.6 °F 19.4 °F 74% 29.76 in 5.0 mi SSW 3.5 mph - N/A Snow Light Snow
1:45 PM 26.6 °F 17.5 °F 17.6 °F 69% 29.76 in 8.0 mi West 9.2 mph 17.3 mph N/A   Mostly Cloudy
2:55 PM 28.4 °F 21.2 °F 17.6 °F 64% 29.77 in 10.0 mi West 6.9 mph - N/A   Mostly Cloudy
3:50 PM 26.6 °F 18.2 °F 17.6 °F 69% 29.78 in 10.0 mi West 8.1 mph - N/A   Scattered Clouds
4:45 PM 23.0 °F 15.8 °F 15.8 °F 74% 29.79 in 10.0 mi WSW 5.8 mph - N/A   Scattered Clouds
4:55 PM 23.0 °F 14.7 °F 15.8 °F 74% 29.79 in 10.0 mi West 6.9 mph - N/A   Clear
5:15 PM 23.0 °F 12.4 °F 15.8 °F 74% 29.80 in 10.0 mi West 10.4 mph - N/A   Clear
5:35 PM 23.0 °F 15.8 °F 15.8 °F 74% 29.80 in 10.0 mi West 5.8 mph - N/A   Scattered Clouds
5:55 PM 21.2 °F 16.4 °F 15.8 °F 80% 29.81 in 10.0 mi South 3.5 mph - N/A   Mostly Cloudy
6:15 PM 19.4 °F - 14.0 °F 80% 29.81 in 10.0 mi Calm Calm - N/A   Mostly Cloudy
6:35 PM 17.6 °F 9.3 °F 15.8 °F 93% 29.81 in 10.0 mi ESE 5.8 mph - N/A   Scattered Clouds
6:55 PM 15.8 °F 4.2 °F 14.0 °F 93% 29.81 in 10.0 mi SE 9.2 mph - N/A   Partly Cloudy
7:15 PM 15.8 °F 7.2 °F 14.0 °F 93% 29.81 in 10.0 mi South 5.8 mph - N/A   Mostly Cloudy
7:35 PM 15.8 °F 8.6 °F 14.0 °F 93% 29.82 in 10.0 mi SE 4.6 mph - N/A Snow Light Snow
7:55 PM 15.8 °F 8.6 °F 12.2 °F 86% 29.82 in 10.0 mi South 4.6 mph - N/A   Mostly Cloudy
8:15 PM 14.0 °F 5.1 °F 12.2 °F 93% 29.83 in 10.0 mi SE 5.8 mph - N/A   Overcast
8:35 PM 14.0 °F 6.5 °F 10.4 °F 86% 29.84 in 10.0 mi SSE 4.6 mph - N/A   Mostly Cloudy
8:55 PM 17.6 °F 10.7 °F 14.0 °F 86% 29.84 in 10.0 mi ESE 4.6 mph - N/A   Mostly Cloudy
9:15 PM 15.8 °F 10.2 °F 14.0 °F 93% 29.84 in 10.0 mi SSW 3.5 mph - N/A   Overcast
9:35 PM 15.8 °F - 14.0 °F 93% 29.84 in 9.0 mi Calm Calm - N/A   Overcast
9:55 PM 17.6 °F 12.3 °F 14.0 °F 86% 29.84 in 7.0 mi SE 3.5 mph - N/A Snow Light Snow